Location: Unspecified
(51.5147°N, 7.4673°E)
Time: 16:28:53
(UTC+01:00)

Transit 4A - Pass Details

Date: 24 February 2026
Orbit: 864 x 977 km, 66.8° (Epoch: 10 March)

Event Time Altitude Azimuth Distance (km) Brightness Sun altitude
Exits shadow 05:55:07 16° 299° (WNW) 2,194 9.4 -14.9°
Maximum altitude 05:58:20 24° 340° (NNW) 1,817 9.3 -14.4°
Drops below altitude 10° 06:03:15 10° 33° (NNE) 2,657 10.8 -13.6°
Sets 06:06:23 0° 47° (NE) 3,624 11.8 -13.1°
